Location: Ammerl�gen
(47.2167°N, 9.6000°E)
Time: 11:13:58
(UTC+00:00)

CZ-4 R/B DEB - Pass Details

Date: 25 October 2021
Orbit: 738 x 791 km, 98.5° (Epoch: 26 November)

Event Time Altitude Azimuth Distance (km) Brightness Sun altitude
Exits shadow 18:20:11 46° 62° (ENE) 990 ? -21.7°
Drops below altitude 10° 18:24:44 10° 357° (N) 2,263 ? -22.4°
Sets 18:27:06 0° 351° (N) 3,195 ? -22.8°
